Starlink 32511

operational
NORAD ID: 61727 Int'l Des: 2024-196 Owner: SPXS Country: US Constellation: starlink
LEOCIRCULAR

Über Starlink 32511

Beschreibung wird geladen...

Live-Position

3D-Globus wird geladen...

Nächste Überflüge

Höhenverlauf

Altitude vs Time

uPlot chart will show altitude changes over time

Zweizeiliger Elementsatz

1 61727U 24196W 25259.08331344 -.00001816 00000-0 -49182-4 0 9990
2 61727 53.1628 192.3632 0001263 72.1108 288.0030 15.30211457 50428
Epoch: 16. Sept. 2025 • Age: 17 hours

Aktueller Status

Höhe 478.2 km
Geschwindigkeit 7.63 km/s
Subsatellitenpunkt -9.62°S, 102.82°E
Startdatum 30. Okt. 2024
Alter 0.8 years
Typ internet

Technische Details

Klassifizierung Payload
Masse 730.00 kg
Trockenmasse 700.00 kg
Gesamtmasse 730.00 kg
Länge 0.30 m
Durchmesser 4.10 m
Spannweite 29.00 m
Form Box + pan
Hersteller SPXS
Bus-Typ Starlink V2M
Phasenstatus In Orbit
Besitzer/Staat SPXS/US

Große Konstellationen

Loading constellations...